This is the latest recevied weather packets stored in our database for station/object KC4KQE. If no packets are shown the sender has not sent any weather packets the latest 1 day(s).
| Time | Temp. | Humidity | Pressure | Rain* | Wind** | Luminosity | Snow |
|---|---|---|---|---|---|---|---|
| 1778004856 | 20.56° C | 53% | 1012.3 hPa | 0 mm | 2.24 m/s, 110° | 457 W/m² | - |
| 1778004556 | 20° C | 60% | 1012.3 hPa | 0 mm | 1.34 m/s, 110° | 403 W/m² | - |
| 1778004256 | 19.44° C | 63% | 1012.3 hPa | 0 mm | 1.34 m/s, 110° | 404 W/m² | - |
| 1778003956 | 18.89° C | 66% | 1012.4 hPa | 0 mm | 3.13 m/s, 110° | 385 W/m² | - |
| 1778003657 | 18.89° C | 66% | 1012.5 hPa | 0 mm | 2.24 m/s, 110° | 269 W/m² | - |
| 1778003356 | 19.44° C | 60% | 1012.4 hPa | 0 mm | 3.13 m/s, 110° | 144 W/m² | - |
| 1778003056 | 20° C | 59% | 1012.3 hPa | 0 mm | 1.34 m/s, 110° | 137 W/m² | - |
| 1778002756 | 20° C | 59% | 1012.4 hPa | 0 mm | 3.58 m/s, 110° | 213 W/m² | - |
| 1778002456 | 20° C | 58% | 1012.3 hPa | 0 mm | 1.34 m/s, 110° | 316 W/m² | - |
| 1778002156 | 20.56° C | 60% | 1012.3 hPa | 0 mm | 3.58 m/s, 110° | 373 W/m² | - |
| 1778001856 | 20° C | 60% | 1012.3 hPa | 0 mm | 1.79 m/s, 110° | 353 W/m² | - |
| 1778001556 | 20° C | 61% | 1012.3 hPa | 0 mm | 1.79 m/s, 110° | 380 W/m² | - |
| 1778001256 | 20° C | 61% | 1012.3 hPa | 0 mm | 3.13 m/s, 110° | 336 W/m² | - |
| 1778000956 | 19.44° C | 64% | 1012.4 hPa | 0 mm | 3.58 m/s, 110° | 302 W/m² | - |
| 1778000656 | 19.44° C | 65% | 1012.3 hPa | 0 mm | 2.24 m/s, 110° | 271 W/m² | - |
| 1778000356 | 19.44° C | 63% | 1012.2 hPa | 0 mm | 3.13 m/s, 110° | 318 W/m² | - |
| 1778000056 | 20° C | 64% | 1012.3 hPa | 0 mm | 0.89 m/s, 110° | 362 W/m² | - |
| 1777999756 | 19.44° C | 65% | 1012.3 hPa | 0 mm | 3.13 m/s, 110° | 408 W/m² | - |
| 1777999457 | 18.89° C | 67% | 1012.3 hPa | 0 mm | 3.13 m/s, 110° | 225 W/m² | - |
| 1777999156 | 18.33° C | 65% | 1012.3 hPa | 0 mm | 3.13 m/s, 110° | 178 W/m² | - |
| 1777998856 | 18.33° C | 67% | 1012.4 hPa | 0 mm | 1.34 m/s, 110° | 120 W/m² | - |
| 1777998556 | 18.33° C | 67% | 1012.3 hPa | 0 mm | 0.89 m/s, 110° | 77 W/m² | - |
| 1777998256 | 18.89° C | 67% | 1012.2 hPa | 0 mm | 0 m/s | 104 W/m² | - |
| 1777997956 | 18.89° C | 67% | 1012.3 hPa | 0 mm | 0 m/s | 192 W/m² | - |
| 1777997657 | 18.89° C | 67% | 1012.4 hPa | 0 mm | 0.45 m/s, 110° | 860 W/m² | - |
* Rain latest hour (hover to see other rain measurements)
** Current wind speed in m/s (hover to see current wind gust speed)